Torna al catalogo

STARLINK-30517

AttivoComunicazioniVLEO
NORAD 57995·PAYLOAD·🇺🇸 United States

Lanciato Oct 5, 2023 da Cape Canaveral Space Force Station

Loading…

Prossimi Passaggi (prossime 24 ore)

TLE

AggiornatoSource: CelesTrak SupGP

Epoca: Sep 15, 2026, 03:09 UTC

1 57995C 23153E   26258.13173611 -.00061165  00000+0 -22148-2 0  2582
2 57995  43.0003  77.4340 0001700 266.0187 183.2439 15.27616303    15

Traccia STARLINK-30517 in tempo reale con AllMySat

Download on the App Store